Regional Weather Roundup
Issued by NWS

Home | Current Version | Previous Version | Graphics & Text | Print | Product List | Glossary On
Versions: 1 2 3 4 5 6 7 8 9 10 11 12 13 14 15 16 17 18 19 20 21 22 23 24 25 26 27 28 29 30 31 32 33 34 35 36 37 38 39 40 41 42 43 44 45 46 47 48 49 50
000
ASUS43 KTOP 311259
RWRKS

WEATHER ROUNDUP FOR KANSAS
NATIONAL WEATHER SERVICE GOODLAND KS
800 AM CDT THU JUL 31 2014

NOTE:  "FAIR" INDICATES FEW OR NO CLOUDS BELOW 12,000 FEET WITH NO
SIGNIFICANT WEATHER AND/OR OBSTRUCTIONS TO VISIBILITY.

KSZ001>006-013>018-027>032-041>047-311400-
NORTHWEST KANSAS

CITY           SKY/WX    TMP DP  RH WIND       PRES   REMARKS
GOODLAND       MOSUNNY   59  56  89 W8        30.24R
HAYS           SUNNY     59  54  82 SW3       30.16R
HILL CITY      SUNNY     59  55  87 W7        30.16S
RUSSELL        SUNNY     60  58  92 SW3       30.14R
$$

KSZ061>065-074>080-084>089-311400-
SOUTHWEST KANSAS

CITY           SKY/WX    TMP DP  RH WIND       PRES   REMARKS
DODGE CITY     SUNNY     62  56  80 W5        30.19R
ELKHART          N/A     58  56  94 W5          N/A
GARDEN CITY    SUNNY     60  57  89 N8        30.20R
GREAT BEND     SUNNY     61  57  88 SW6       30.16R
LIBERAL        MOSUNNY   59  54  82 NW5       30.22S
$$

KSZ066>073-081>083-090>101-311400-
SOUTHEAST KANSAS

CITY           SKY/WX    TMP DP  RH WIND       PRES   REMARKS
CHANUTE        CLOUDY    63  62  97 CALM      30.11S FOG
COFFEYVILLE    CLOUDY    66  64  93 CALM      30.10R
HUTCHINSON     SUNNY     64  59  83 CALM      30.14R
NEWTON         SUNNY     61  55  82 N6        30.17R
PARSONS        CLOUDY    66  64  93 N3        30.12R
WICHITA INTL   MOSUNNY   64  60  87 N7        30.13S FOG
WICHITA JABRA  SUNNY     62  59  90 N5        30.13S
WINFIELD       PTSUNNY   63  63 100 N8        30.13S
$$

KSZ007>012-019>026-033>040-048>060-102>105-311400-
NORTHEAST KANSAS

CITY           SKY/WX    TMP DP  RH WIND       PRES   REMARKS
CONCORDIA      SUNNY     60  56  86 CALM      30.13S
EMPORIA        SUNNY     61  59  93 NW5       30.12S
LAWRENCE       SUNNY     61  57  87 NW6       30.12R
MANHATTAN      SUNNY     60  58  92 CALM      30.13S
OLATHE IND     SUNNY     62  60  93 NW3       30.12R
OLATHE EXE     SUNNY     65  59  81 N3        30.11R
SALINA         SUNNY     60  57  89 CALM      30.14R FOG
TOPEKA BILLARD SUNNY     61  58  90 CALM      30.12S
TOPEKA FORBES  SUNNY     62  59  90 NW5       30.12R
$$


USA.gov is the U.S. government's official web portal to all federal, state and local government web resources and services.